Regional Weather Roundup
Issued by NWS

Home | Current Version | Previous Version | Graphics & Text | Print | Product List | Glossary On
Versions: 1 2 3 4 5 6 7 8 9 10 11 12 13 14 15 16 17 18 19 20 21 22 23 24 25 26 27 28 29 30 31 32 33 34 35 36 37 38 39 40 41 42 43 44 45 46 47 48 49 50
000
ASUS43 KMPX 271610
RWRMN
WEATHER ROUNDUP FOR MINNESOTA
NATIONAL WEATHER SERVICE TWIN CITIES/CHANHASSEN MN
1100 AM CDT WED AUG 27 2014


NOTE: "FAIR" INDICATES FEW OR NO CLOUDS BELOW 12,000 FEET WITH NO
SIGNIFICANT WEATHER AND/OR OBSTRUCTIONS TO VISIBILITY. N/A MEANS
CURRENT SKY AND/OR WEATHER CONDITIONS ARE NOT AVAILABLE.

MNZ060>063-068>070-271700-
   Twin Cities Metro

CITY           SKY/WX    TMP DP  RH WIND       PRES   REMARKS
TWIN CITIES    MOSUNNY   69  54  58 VRB6      30.25R
ST PAUL        MOSUNNY   68  54  60 CALM      30.25R
CRYSTAL        MOSUNNY   69  54  58 CALM      30.23R
BLAINE         MOSUNNY   70  55  60 E6        30.24R
LAKEVILLE      PTSUNNY   66  55  68 SE3       30.23S
EDEN PRAIRIE   MOSUNNY   69  54  58 E5        30.23R
SOUTH ST PAUL  MOSUNNY   69  54  60 SE3       30.25R
LAKE ELMO      FAIR      68  54  60 SE5       30.25R
$$
MNZ001>005-007-008-013>017-022>024-027-028-271700-
   Northwest Minnesota

CITY           SKY/WX    TMP DP  RH WIND       PRES   REMARKS
BEMIDJI        SUNNY     63  54  73 SW3       30.21S
HALLOCK        SUNNY     63  55  77 S6        30.17S
ROSEAU         SUNNY     63  54  72 CALM      30.18S
WARROAD        MOSUNNY   57  54  88 CALM      30.18F
THIEF RVR FALL SUNNY     64  55  72 W5        30.19S
CROOKSTON      SUNNY     64  55  72 S5        30.19S
FOSSTON        SUNNY     63  55  77 SW3       30.21F
DETROIT LAKES  PTSUNNY   64  55  72 S3        30.23R
MOORHEAD       MOSUNNY   66  61  82 S3        30.21S
PARK RAPIDS    SUNNY     63  53  70 CALM      30.22R
MAHNOMEN       FAIR      61  55  81 CALM      30.21S
$$
MNZ006-009>011-018-025>026-271700-
   North Central Minnesota

CITY           SKY/WX    TMP DP  RH WIND       PRES   REMARKS
BAUDETTE       MOSUNNY   59  54  83 VRB3      30.19S
FLAG ISLAND    SUNNY     63  55  77 S5        30.16S
INTL FALLS     MOSUNNY   64  52  64 CALM      30.19S
WASKISH        SUNNY     64  57  77 SW7       30.20R
BIG FORK       MOSUNNY   66  54  63 SW3       30.21S
LONGVILLE      MOSUNNY   64  54  68 CALM      30.21S
GRAND RAPIDS   SUNNY     63  50  63 W3        30.23S
CRANE LAKE     SUNNY     59  46  63 CALM      30.22S
ORR            MOSUNNY   63  45  51 CALM      30.19R
COOK           SUNNY     61  52  72 SW5       30.22S
WALKER         FAIR      62  53  73 CALM      30.22S
$$
MNZ012-019>021-037-271700-
   Northeast Minnesota

CITY           SKY/WX    TMP DP  RH WIND       PRES   REMARKS
DULUTH         SUNNY     64  49  57 VRB5      30.22S
ELY            SUNNY     59  46  63 NW3       30.21S
HIBBING        PTSUNNY   63  51  65 SW5       30.22S
EVELETH        PTSUNNY   59  46  63 W3        30.23R
DULUTH HARBOR  SUNNY     63  54  72 E5        30.24R
TWO HARBORS    MOSUNNY   63  48  59 N3        30.20F
SILVER BAY     SUNNY     61  52  72 CALM      30.20S
GRAND MARAIS     N/A     64  46  52 VRB3      30.19R
G MARAIS ARPRT PTSUNNY   57  43  58 NW3       30.21S
$$
MNZ029>031-032-039>041-046>048-054>057-064-271700-
   West Central Minnesota

CITY           SKY/WX    TMP DP  RH WIND       PRES   REMARKS
FERGUS FALLS   MOSUNNY   66  54  63 S6        30.21S
WHEATON        SUNNY     64  57  77 SE6       30.22S
MORRIS         SUNNY     70  57  64 SE6       30.21R
ALEXANDRIA     SUNNY     66  56  70 SE6       30.23S
ELBOW LAKE     FAIR      66  56  70 E6        30.21S
WADENA         CLOUDY    64  55  72 CALM      30.22S
GLENWOOD       SUNNY     66  55  68 SE5       30.23R
APPLETON       MOSUNNY   70  57  64 S9        30.21R
BENSON         PTSUNNY   70  57  64 S8        30.23R
ORTONVILLE     MOSUNNY   66  57  72 S8        30.22R
MADISON        MOSUNNY   70  61  73 S8        30.21S
WILLMAR        FAIR      68  57  68 SE8       30.24R
$$
MNZ033>034-036-042>043-049>051-058-059-271700-
   Central Minnesota

CITY           SKY/WX    TMP DP  RH WIND       PRES   REMARKS
ST CLOUD       SUNNY     69  55  60 VRB3      30.22S
SAUK CENTRE    FAIR      66  55  69 CALM      30.23S
PAYNESVILLE    PTSUNNY   63  55  75 E8        30.24R
AITKIN         PTSUNNY   66  55  68 E3        30.22R
PINE RIVER     PTSUNNY   64  55  72 CALM      30.25S
BRAINERD       PTSUNNY   63  55  75 CALM      30.23R
STAPLES        CLOUDY    63  54  72 CALM      30.23R
LONG PRAIRIE   PTSUNNY   63  54  72 SE5       30.23S
LITTLE FALLS   PTSUNNY   63  54  72 SE3       30.23R
LITCHFIELD     MOSUNNY   70  59  68 SE9       30.25R
BUFFALO        SUNNY     68  53  60 CALM      30.24R
MAPLE LAKE     SUNNY     69  58  68 E5        30.25R
$$
MNZ037-044-045-052-053-271700-
   East Central Minnesota

CITY           SKY/WX    TMP DP  RH WIND       PRES   REMARKS
PRINCETON      MOSUNNY   66  55  68 S2        30.23S
MORA           SUNNY     64  52  63 CALM      30.25R
CAMBRIDGE      SUNNY     70  54  56 E5        30.22R
RUSH CITY      SUNNY     65  53  66 CALM      30.24R
MOOSE LAKE     PTSUNNY   64  50  59 SE3       30.22R
HINCKLEY       FAIR      64  54  68 E3        30.23F
CLOQUET        MOSUNNY   63  46  55 CALM      30.23S
MCGREGOR       MOSUNNY   63  52  67 CALM      30.24R
$$
MNZ071>073-080-081-089-090-097-098-271700-
   Southwest Minnesota

CITY           SKY/WX    TMP DP  RH WIND       PRES   REMARKS
MONTEVIDEO     MOSUNNY   72  59  64 S6        30.23S
GRANITE FALLS  MOSUNNY   67  57  70 SE9       30.24S
CANBY          CLOUDY    67  60  79 SE7       30.22S
MARSHALL       CLOUDY    66  57  72 SE7       30.21S
REDWOOD FALLS  PTSUNNY   70  57  63 SE8       30.22S
OLIVIA         MOSUNNY   70  57  64 SE9       30.22R
PIPESTONE      CLOUDY    64  57  77 SE8       30.21F
WINDOM         CLOUDY    66  57  72 E7        30.23R
WORTHINGTON    CLOUDY    64  57  77 SE7       30.23F
JACKSON        CLOUDY    66  55  68 SE6       30.24R
TRACY          CLOUDY    70  60  69 SE8       30.23R
SLAYTON        CLOUDY    65  58  78 CALM      30.24S
$$
MNZ065>067-074>077-082>085-091>093-271700-
   South Central Minnesota

CITY           SKY/WX    TMP DP  RH WIND       PRES   REMARKS
MANKATO        PTSUNNY   68  55  64 E7        30.23R
NEW ULM        PTSUNNY   68  61  77 SE7       30.23R
ST JAMES       CLOUDY    72  59  64 E6        30.24R
FAIRMONT       CLOUDY    64  54  68 SE7       30.23R
GLENCOE        MOSUNNY   70  55  59 SE7       30.24R
FARIBAULT      PTSUNNY   72  54  53 E3        30.24S
OWATONNA       PTSUNNY   68  57  68 E5        30.23S
WASECA         PTSUNNY   66  52  59 E7        30.25R
ALBERT LEA     CLOUDY    66  57  72 SE7       30.24R
$$
MNZ078>079-086>088-094>096-271700-
   Southeast Minnesota

CITY           SKY/WX    TMP DP  RH WIND       PRES   REMARKS
ROCHESTER      MOSUNNY   68  57  68 E9        30.24S
RED WING       PTSUNNY   68  55  64 CALM      30.23R
STANTON        PTSUNNY   69  56  62 CALM      30.22S
DODGE CENTER   PTSUNNY   66  57  72 E7        30.23R
WINONA         PTSUNNY   70  55  60 E3        30.22S
AUSTIN         PTSUNNY   68  57  68 SE7       30.23R
PRESTON        PTSUNNY   67  61  80 CALM      30.24R
$$
ABBREVIATIONS USED IN REMARKS
   TC - TEMPERATURES IN CELSIUS
  WCI - WIND CHILL INDEX
   HX - HEAT INDEX
  VSB - VISIBILITY
$$



USA.gov is the U.S. government's official web portal to all federal, state and local government web resources and services.